Fairbanks Eiels, AK

6:51 AM AKST on December 14, 2019 (GMT -0900)
Eielson Air Force Base

Weather History for PAEI - October, 2019

Change the Weather History Date:

Tuesday, October 1, 2019

  Actual Average Record
Temperature  
Mean Temperature 36 °F -  
Max Temperature 41 °F 44 °F 71 °F (2003)
Min Temperature 30 °F 27 °F 14 °F (1972)
Degree Days  
Heating Degree Days 30    
Moisture  
Dew Point 36 °F    
Average Humidity 91    
Maximum Humidity 93    
Minimum Humidity 86    
Precipitation  
Precipitation 0.21 in - - ()
Sea Level Pressure  
Sea Level Pressure 29.73 in    
Wind  
Wind Speed 1 mph (NNW)    
Max Wind Speed 7 mph    
Max Gust Speed -    
Visibility 9 miles    
Events Rain    
Averages and records for this station are not official NWS values.
T = Trace of Precipitation, MM = Missing Value Source: NWS Daily Summary

Daily Weather History Graph

Daily Weather History Graph

Search for Another Location

Airport or City:

Astronomy

Oct. 01, 2019 Rise Set
Actual Time 7:57 AM AKDT 7:16 PM AKDT
Civil Twilight 7:09 AM AKDT 8:04 PM AKDT
Nautical Twilight 6:11 AM AKDT 9:02 PM AKDT
Astronomical Twilight 5:09 AM AKDT 10:04 PM AKDT
Moon 12:36 PM AKDT (10/1) 8:17 PM AKDT (10/1)
Length of Visible Light 12h 55m
Length of Day
11h 18m
Waxing Crescent, 13% of the Moon is Illuminated
Oct 1
Waxing Crescent
Oct 5
First Quarter
Oct 13
Full
Oct 21
Last Quarter
Oct 27
New

Hourly Weather History & Observations

Time (AKDT) Temp. Windchill Dew Point Humidity Pressure Visibility Wind Dir Wind Speed Gust Speed Precip Events Conditions
12:56 AM 37.2 °F - 35.1 °F 92% 29.82 in 10.0 mi Calm Calm - N/A   Overcast
1:56 AM 36.7 °F - 34.3 °F 91% 29.81 in 10.0 mi Calm Calm - N/A   Overcast
2:56 AM 37.0 °F - 35.2 °F 93% 29.81 in 10.0 mi Calm Calm - N/A   Overcast
3:56 AM 33.8 °F 27.7 °F 31.6 °F 92% 29.78 in 10.0 mi NNW 6.9 mph - N/A   Overcast
4:56 AM 32.5 °F - 30.4 °F 92% 29.78 in 10.0 mi Calm Calm - N/A   Scattered Clouds
5:56 AM 30.9 °F 25.2 °F 29.1 °F 93% 29.77 in 10.0 mi NNW 5.8 mph - N/A   Scattered Clouds
6:56 AM 31.1 °F - 29.3 °F 93% 29.77 in 10.0 mi Calm Calm - N/A   Mostly Cloudy
7:56 AM 31.6 °F - 29.8 °F 93% 29.75 in 10.0 mi Calm Calm - N/A   Mostly Cloudy
8:56 AM 31.8 °F - 30.0 °F 93% 29.74 in 10.0 mi Calm Calm - N/A   Overcast
9:56 AM 32.4 °F - 30.6 °F 93% 29.74 in 10.0 mi Calm Calm - N/A   Mostly Cloudy
10:56 AM 33.3 °F - 31.1 °F 92% 29.73 in 10.0 mi Calm Calm - N/A   Mostly Cloudy
11:49 AM 33.8 °F 29.6 °F 32.0 °F 93% 29.73 in 10.0 mi Variable 4.6 mph - N/A   Mostly Cloudy
11:56 AM 34.5 °F - 32.4 °F 92% 29.73 in 10.0 mi Calm Calm - N/A   Mostly Cloudy
12:11 PM 35.6 °F - 32.0 °F 87% 29.73 in 10.0 mi Calm Calm - N/A Rain Light Rain
12:18 PM 35.6 °F 32.8 °F 33.8 °F 93% 29.73 in 10.0 mi ESE 3.5 mph - N/A Rain Light Rain
12:37 PM 35.6 °F - 33.8 °F 93% 29.73 in 10.0 mi Calm Calm - N/A Rain Light Rain
1:56 PM 38.3 °F - 36.1 °F 92% 29.71 in 10.0 mi Calm Calm - 0.01 in Rain Light Rain
2:24 PM 39.2 °F - 37.4 °F 93% 29.71 in 10.0 mi Calm Calm - N/A   Overcast
2:56 PM 39.2 °F - 36.9 °F 91% 29.70 in 10.0 mi Calm Calm - 0.00 in   Light Drizzle
3:01 PM 39.2 °F - 37.4 °F 93% 29.70 in 10.0 mi Calm Calm - N/A   Light Drizzle
3:36 PM 39.2 °F - 37.4 °F 93% 29.71 in 10.0 mi Calm Calm - N/A   Light Drizzle
3:51 PM 41.0 °F - 37.4 °F 87% 29.68 in 10.0 mi Calm Calm - N/A   Light Drizzle
3:56 PM 40.1 °F - 37.8 °F 91% 29.71 in 10.0 mi Calm Calm - 0.00 in Rain Light Rain
4:04 PM 41.0 °F - 37.4 °F 87% 29.67 in 10.0 mi Calm Calm - N/A   Overcast
4:56 PM 41.0 °F - 38.7 °F 91% 29.71 in 10.0 mi Calm Calm - 0.00 in   Mostly Cloudy
5:18 PM 41.0 °F - 39.2 °F 93% 29.71 in 10.0 mi Calm Calm - N/A Rain Light Rain
5:56 PM 41.5 °F - 39.4 °F 92% 29.72 in 5.0 mi Calm Calm - 0.01 in Rain Light Rain
6:11 PM 41.0 °F 38.0 °F 39.2 °F 93% 29.72 in 6.0 mi West 4.6 mph - N/A Rain Light Rain
6:34 PM 41.0 °F - 39.2 °F 93% 29.72 in 6.0 mi Calm Calm - N/A Rain Light Rain
6:49 PM 41.0 °F - 39.2 °F 93% 29.72 in 6.0 mi Calm Calm - N/A Rain Light Rain
6:56 PM 41.2 °F - 39.4 °F 93% 29.72 in 6.0 mi Calm Calm - 0.03 in Rain Light Rain
7:25 PM 41.0 °F 37.1 °F 39.2 °F 93% 29.72 in 6.0 mi NNE 5.8 mph - N/A Rain Light Rain
7:56 PM 41.5 °F 38.6 °F 37.6 °F 86% 29.73 in 8.0 mi NNE 4.6 mph - 0.02 in Rain Light Rain
8:56 PM 40.5 °F 37.3 °F 38.1 °F 91% 29.73 in 10.0 mi NNW 4.6 mph - 0.03 in Rain Light Rain
9:11 PM 41.0 °F 38.0 °F 37.4 °F 87% 29.70 in 10.0 mi NW 4.6 mph - N/A Rain Light Rain
9:41 PM 41.0 °F 39.0 °F 37.4 °F 87% 29.73 in 10.0 mi NW 3.5 mph - N/A Rain Light Rain
9:56 PM 40.1 °F - 37.8 °F 91% 29.70 in 10.0 mi Calm Calm - 0.04 in Rain Light Rain
10:41 PM 41.0 °F - 37.4 °F 87% 29.74 in 7.0 mi Calm Calm - N/A Rain Rain
11:11 PM 39.2 °F - 37.4 °F 93% 29.75 in 7.0 mi Calm Calm - N/A Rain Light Rain
11:41 PM 39.2 °F - 37.4 °F 93% 29.75 in 8.0 mi Calm Calm - N/A Rain Light Rain
11:56 PM 38.8 °F - 37.0 °F 93% 29.75 in 10.0 mi Calm Calm - 0.07 in Rain Light Rain